Regional Weather Roundup
Issued by NWS Mt. Holly, NJ

Home | Current Version | Previous Version | Text Only | Print | Product List | Glossary On
Versions: 1 2 3 4 5 6 7 8 9 10 11 12 13 14 15 16 17 18 19 20 21 22 23 24 25 26 27 28 29 30 31 32 33 34 35 36 37 38 39 40 41 42 43 44 45 46 47 48 49 50
000
ASUS41 KPHI 052012
RWRPHI

REGIONAL WEATHER ROUNDUP
NATIONAL WEATHER SERVICE MOUNT HOLLY NJ
400 PM EDT SUN JUL 05 2015

NOTE:  "FAIR" INDICATES FEW OR NO CLOUDS BELOW 12,000 FEET WITH NO
SIGNIFICANT WEATHER AND/OR OBSTRUCTIONS TO VISIBILITY.

 * = STATION DOES NOT REPORT PRECIPITATION (E.G. RAIN, SNOW, ETC.)
        OR FOG.

NJZ015>026-052100-
SOUTHERN NEW JERSEY

CITY           SKY/WX    TMP DP  RH WIND       PRES   REMARKS
POMONA         SUNNY     79  64  60 S9        30.13S
RIO GRANDE*    SUNNY     79  63  57 SE8       30.15S
MILLVILLE      MOSUNNY   80  67  64 VRB6      30.13F
WRIGHTSTOWN    MOSUNNY   82  64  55 VRB5      30.09F
MOUNT HOLLY    SUNNY     82  63  52 VRB3      30.11F
TRENTON        MOSUNNY   83  62  49 VRB5      30.11F

$$
NJZ001>014-052100-
NORTHERN NEW JERSEY

CITY           SKY/WX    TMP DP  RH WIND       PRES   REMARKS
SUSSEX         MOSUNNY   80  60  50 S5        30.12S
ANDOVER*         N/A     79  62  56 VRB3      30.13F
MORRISTOWN     MOSUNNY   84  63  48 W7        30.11F
NEWARK         PTSUNNY   83  61  47 VRB6      30.10F
TETERBORO      MOSUNNY   86  59  39 VRB5      30.08F
CALDWELL       MOSUNNY   82  61  48 VRB5      30.10F
SOMERVILLE     SUNNY     83  60  45 NW5       30.10F
ALLAIRE*       MOSUNNY   81  63  54 S7        30.12S
TOMS RIVER*    MOSUNNY   84  61  45 CALM      30.12S

$$
PAZ043-044-047-054-055-060>062-066>071-052100-
EASTERN PENNSYLVANIA

CITY           SKY/WX    TMP DP  RH WIND       PRES   REMARKS
PHILADELPHIA   MOSUNNY   83  62  49 S7        30.12S
NORTH PHILA    MOSUNNY   86  60  41 CALM      30.13S
BLUE BELL      MOSUNNY   82  66  57 W3        30.12F
DOYLESTOWN     SUNNY     80  62  54 NW5       30.12F
QUAKERTOWN*    SUNNY     82  64  54 SW3       30.14S
POTTSTOWN      PTSUNNY   78  65  63 VRB3      30.14F
LANCASTER      MOSUNNY   78  65  63 W5        30.13F
COATESVILLE    MOSUNNY   77  66  69 CALM      30.15S
READING        MOSUNNY   81  60  48 CALM      30.12S
ALLENTOWN      SUNNY     83  61  47 VRB3      30.12F
MOUNT POCONO   NOT AVBL
HAZLETON       SUNNY     77  55  47 CALM      30.19F
WILKES BARRE   NOT AVBL

$$
DEZALL-MDZ008-012-015-019-020-052100-
DELAWARE AND EASTERN MARYLAND

CITY           SKY/WX    TMP DP  RH WIND       PRES   REMARKS
WILMINGTON     SUNNY     81  67  62 SE9       30.13S
DOVER          SUNNY     79  69  70 E10       30.11F
GEORGETOWN     PTSUNNY   83  68  60 VRB5      30.12F
EASTON         MOSUNNY   84  72  65 CALM      30.15F
PATUXENT       PTSUNNY   80  67  64 SE8       30.12F
OCEAN CITY     MOSUNNY   77  70  79 SE7       30.13F
WALLOPS ISLAND MOSUNNY   79  72  79 SE10      30.14S
CAMBRIDGE      MOSUNNY   82  66  57 CALM      30.11F
SALISBURY      MOSUNNY   81  70  69 SE6       30.12S

$$
PAZ001-021-NYZ056-072-MDZ011-DCZ001-052100-
OTHER NEARBY LOCATIONS

CITY           SKY/WX    TMP DP  RH WIND       PRES   REMARKS
HARRISBURG     CLOUDY    79  66  64 CALM      30.12F
WILLIAMSPORT   SUNNY     80  62  54 E3        30.11F
BINGHAMTON     MOSUNNY   76  58  53 VRB6      30.16F
NEW YORK CITY  SUNNY     83  59  44 CALM      30.13S
BALTIMORE      PTSUNNY   81  67  62 CALM      30.11F
WASHINGTON DC  PTSUNNY   85  68  56 CALM      30.12F

$$


USA.gov is the U.S. government's official web portal to all federal, state and local government web resources and services.